Location: Austin
(30.3000°N, 97.7500°W)
Time: 22:59:15
(UTC-06:00)

Meteor 2-3 Rocket - Pass Details

Date: 03 December 2025
Orbit: 841 x 884 km, 81.2° (Epoch: 07 December)

Event Time Altitude Azimuth Distance (km) Brightness Sun altitude
Rises 06:29:05 0° 193° (SSW) 3,467 7.0 -9.3°
Reaches altitude 10° 06:31:33 10° 196° (SSW) 2,529 6.3 -8.8°
Maximum altitude 06:37:16 67° 278° (W) 947 3.8 -7.7°
Drops below altitude 10° 06:42:58 10° 1° (N) 2,520 6.0 -6.5°
Sets 06:45:25 0° 4° (N) 3,455 6.7 -6.0°
